Location: Saint-Usage
(47.1052°N, 5.2587°E)
Time: 19:28:20
(UTC+02:00)

X-37B - Pass Details

Date: 04 October 2021
Orbit: 385 x 389 km, 45.0° (Epoch: 13 October)

Event Time Altitude Azimuth Distance (km) Brightness Sun altitude
Exits shadow 06:34:24 12° 215° (SW) 1,280 2.8 -12.3°
Maximum altitude 06:34:31 12° 213° (SSW) 1,278 2.8 -12.3°
Drops below altitude 10° 06:35:54 10° 187° (S) 1,407 3.3 -12.0°
Sets 06:38:54 0° 156° (SSE) 2,257 4.7 -11.5°
